OK1PHU-6 Weather Reports


time (UTC)temp
F
wind
direction
speed
knots
gust
knots
rain 1hr
in
rain 24hr
in
rain mn
in
humidity
%
barometer
mb
20260505041254 0 135 4.3 7.0 0.00 0.00 0.00 1008.8
20260505040211 0 113 3.5 6.1 0.00 0.00 0.00 1008.8
20260505035129 0 135 3.5 5.2 0.00 0.00 0.00 1009.0
20260505034045 0 180 1.7 2.6 0.00 0.00 0.00 1009.2
20260505033003 0 180 0.9 2.6 0.00 0.00 0.00 1009.2
20260505031919 0 180 0.9 3.5 0.00 0.00 0.00 1009.3
20260505030830 0 180 1.7 3.5 0.00 0.00 0.00 1009.5
20260505025747 0 135 0.9 2.6 0.00 0.00 0.00 1009.8
20260505024703 0 90 1.7 1.7 0.00 0.00 0.00 1010.0
20260505023619 0 90 1.7 2.6 0.00 0.00 0.00 1010.1
20260505022538 0 135 1.7 2.6 0.00 0.00 0.00 1010.1
20260505021455 0 135 1.7 2.6 0.00 0.00 0.00 1010.1
20260505020411 0 90 1.7 2.6 0.00 0.00 0.00 1010.1
20260505015328 0 135 1.7 2.6 0.00 0.00 0.00 1010.2
20260505014245 0 135 1.7 1.7 0.00 0.00 0.00 1010.1
20260505013201 0 180 0.0 2.6 0.00 0.00 0.00 1010.1
20260505012118 0 270 0.9 1.7 0.00 0.00 0.00 1010.2
20260505011036 0 180 0.0 2.6 0.00 0.00 0.00 1010.1
20260505005950 0 23 2.6 7.8 0.00 0.01 0.00 1010.2
20260505004905 0 0 1.7 9.6 0.00 0.01 0.00 1009.6
20260505003822 0 180 1.7 4.3 0.00 0.01 0.00 1009.4
20260505002739 0 135 1.7 6.1 0.00 0.01 0.00 1009.6
20260505001657 0 90 1.7 8.7 0.00 0.01 0.00 1009.7
20260505000615 0 225 1.7 7.8 0.00 0.01 0.00 1009.9
20260504235530 0 180 6.1 10.4 0.00 0.01 0.00 1010.0
20260504234447 0 180 5.2 7.0 0.00 0.01 0.00 1010.0
20260504233404 0 135 2.6 7.8 0.00 0.01 0.00 1010.1
20260504232320 0 225 1.7 7.0 0.00 0.01 0.00 1010.2
20260504231237 0 135 5.2 7.8 0.00 0.01 0.00 1010.2
20260504230153 0 135 3.5 10.4 0.00 0.01 0.00 1010.3
20260504225109 0 180 3.5 7.8 0.00 0.01 0.00 1010.4
20260504224027 0 180 2.6 7.0 0.00 0.01 0.00 1010.5
20260504222942 0 90 4.3 10.4 0.00 0.01 0.00 1010.5
20260504221856 0 135 2.6 7.0 0.00 0.01 0.00 1010.7
20260504220810 0 90 1.7 6.1 0.00 0.01 0.00 1010.8
20260504215726 0 113 3.5 7.8 0.00 0.01 0.01 1010.9
20260504214641 0 135 2.6 5.2 0.00 0.01 0.01 1011.0
20260504213555 0 90 3.5 4.3 0.00 0.01 0.01 1011.0
20260504212508 0 90 1.7 4.3 0.00 0.01 0.01 1011.1
20260504211423 0 135 2.6 4.3 0.00 0.01 0.01 1011.2
20260504210340 0 180 1.7 5.2 0.00 0.01 0.01 1011.2
20260504205254 0 135 1.7 6.1 0.00 0.01 0.01 1011.2
20260504204212 0 90 1.7 5.2 0.00 0.01 0.01 1011.1
20260504203126 0 68 1.7 3.5 0.00 0.01 0.01 1011.1
20260504202040 0 180 1.7 7.8 0.00 0.01 0.01 1011.1
20260504200958 0 180 0.9 8.7 0.00 0.01 0.01 1011.1
20260504195914 0 0 1.7 7.8 0.00 0.01 0.01 1011.2
20260504194831 0 135 0.9 7.8 0.00 0.01 0.01 1011.2
20260504193747 0 90 2.6 5.2 0.00 0.01 0.01 1011.3
20260504192701 0 180 2.6 5.2 0.00 0.01 0.01 1011.3
20260504191619 0 90 4.3 5.2 0.00 0.01 0.01 1011.3
20260504190535 0 180 0.9 4.3 0.00 0.01 0.01 1011.5
20260504185452 0 90 1.7 2.6 0.00 0.01 0.01 1011.5
20260504184405 0 135 1.7 2.6 0.00 0.01 0.01 1011.4
20260504183328 0 135 1.7 2.6 0.00 0.01 0.01 1011.2
20260504182240 0 135 0.9 1.7 0.00 0.01 0.01 1011.0
20260504181158 0 135 0.9 1.7 0.00 0.01 0.01 1010.8
20260504180114 0 135 0.0 1.7 0.00 0.01 0.01 1010.6
20260504175033 0 135 0.9 1.7 0.00 0.01 0.01 1010.5
20260504173927 0 135 0.0 1.7 0.00 0.01 0.01 1010.4
20260504172812 0 90 2.6 2.6 0.00 0.01 0.01 1010.4
20260504171710 0 90 1.7 1.7 0.00 0.01 0.01 1010.3
20260504170626 0 135 0.9 0.9 0.00 0.01 0.01 1010.2
20260504160123 0 270 1.7 2.6 0.00 0.01 0.01 1010.3
20260504150747 0 270 1.7 4.3 0.00 0.01 0.01 1010.3
20260504140323 0 225 2.6 7.8 0.00 0.01 0.01 1010.9
20260504082002 0 315 4.3 7.8 0.00 0.01 0.01 1013.6
20260504080916 0 225 1.7 4.3 0.00 0.01 0.01 1013.5
20260504050613 0 180 3.5 9.6 0.00 0.01 0.01 1014.0
20260504045530 0 315 1.7 6.1 0.00 0.01 0.01 1013.7
20260504044446 0 270 1.7 10.4 0.00 0.01 0.01 1013.5
20260504043400 0 225 6.1 10.4 0.00 0.01 0.01 1013.3
20260504042316 0 135 4.3 7.8 0.00 0.01 0.01 1013.3